| time (UTC) | temp F | wind direction | speed MPH | gust MPH | rain 1hr in | rain 24hr in | rain mn in | humidity % | barometer mb |
| 20260510031554 | 60 | 65 | 6.0 | 9.0 | 0.00 | 0.00 | 0.00 | 72 | 997.2 |
| 20260510030044 | 63 | 18 | 5.0 | 12.0 | 0.00 | 0.00 | 0.00 | 66 | 996.9 |
| 20260510024542 | 67 | 137 | 3.0 | 7.0 | 0.00 | 0.00 | 0.00 | 49 | 996.6 |
| 20260510023038 | 68 | 227 | 2.0 | 12.0 | 0.00 | 0.00 | 0.00 | 49 | 995.9 |
| 20260510021539 | 68 | 247 | 3.0 | 12.0 | 0.00 | 0.00 | 0.00 | 49 | 995.3 |
| 20260510020034 | 68 | 241 | 6.0 | 12.0 | 0.00 | 0.00 | 0.00 | 48 | 995.1 |
| 20260510014533 | 68 | 214 | 7.0 | 13.0 | 0.00 | 0.00 | 0.00 | 48 | 995.0 |
| 20260510013030 | 68 | 245 | 6.0 | 18.0 | 0.00 | 0.00 | 0.00 | 50 | 995.2 |
| 20260510011530 | 67 | 234 | 6.0 | 16.0 | 0.00 | 0.00 | 0.00 | 49 | 995.3 |
| 20260510010023 | 67 | 238 | 8.0 | 17.0 | 0.00 | 0.00 | 0.00 | 50 | 995.0 |
| 20260510004520 | 67 | 215 | 5.0 | 14.0 | 0.00 | 0.00 | 0.00 | 49 | 995.2 |
| 20260510003023 | 67 | 252 | 7.0 | 14.0 | 0.00 | 0.00 | 0.00 | 49 | 995.3 |
| 20260510001517 | 67 | 264 | 8.0 | 16.0 | 0.00 | 0.00 | 0.00 | 49 | 995.1 |
| 20260510000019 | 67 | 237 | 5.0 | 14.0 | 0.00 | 0.00 | 0.00 | 51 | 995.2 |
| 20260509234515 | 66 | 209 | 6.0 | 17.0 | 0.00 | 0.00 | 0.00 | 50 | 995.2 |
| 20260509233013 | 66 | 279 | 8.0 | 15.0 | 0.00 | 0.00 | 0.00 | 50 | 995.1 |
| 20260509231512 | 66 | 259 | 6.0 | 13.0 | 0.00 | 0.00 | 0.00 | 51 | 995.3 |
| 20260509230010 | 66 | 255 | 6.0 | 17.0 | 0.00 | 0.00 | 0.00 | 51 | 995.1 |
| 20260509224508 | 65 | 267 | 6.0 | 16.0 | 0.00 | 0.00 | 0.00 | 51 | 995.2 |
| 20260509223005 | 65 | 245 | 8.0 | 17.0 | 0.00 | 0.00 | 0.00 | 51 | 995.0 |
| 20260509221504 | 64 | 264 | 5.0 | 13.0 | 0.00 | 0.00 | 0.00 | 53 | 995.2 |
| 20260509220001 | 64 | 230 | 5.0 | 11.0 | 0.00 | 0.00 | 0.00 | 55 | 995.2 |
| 20260509214608 | 63 | 276 | 6.0 | 11.0 | 0.00 | 0.00 | 0.00 | 55 | 995.2 |
| 20260509213057 | 62 | 267 | 4.0 | 11.0 | 0.00 | 0.00 | 0.00 | 56 | 995.4 |
| 20260509211558 | 61 | 269 | 3.0 | 7.0 | 0.00 | 0.00 | 0.00 | 59 | 995.3 |
| 20260509210107 | 60 | 243 | 3.0 | 9.0 | 0.00 | 0.00 | 0.00 | 59 | 995.4 |
| 20260509204551 | 59 | 264 | 1.0 | 7.0 | 0.00 | 0.00 | 0.00 | 61 | 995.2 |
| 20260509203043 | 58 | 259 | 3.0 | 5.0 | 0.00 | 0.00 | 0.00 | 64 | 995.2 |
| 20260509201548 | 57 | 279 | 0.0 | 5.0 | 0.00 | 0.00 | 0.00 | 66 | 994.9 |
| 20260509200045 | 54 | 270 | 1.0 | 4.0 | 0.00 | 0.00 | 0.00 | 70 | 994.9 |
| 20260509194537 | 54 | 252 | 1.0 | 4.0 | 0.00 | 0.00 | 0.00 | 68 | 994.7 |
| 20260509193036 | 54 | 267 | 0.0 | 3.0 | 0.00 | 0.00 | 0.00 | 68 | 994.8 |
| 20260509191536 | 54 | 268 | 1.0 | 4.0 | 0.00 | 0.00 | 0.00 | 68 | 994.8 |
| 20260509190037 | 54 | 282 | 2.0 | 5.0 | 0.00 | 0.00 | 0.00 | 68 | 994.5 |
| 20260509184535 | 54 | 246 | 3.0 | 5.0 | 0.00 | 0.00 | 0.00 | 70 | 994.4 |
| 20260509183033 | 53 | 246 | 2.0 | 4.0 | 0.00 | 0.00 | 0.00 | 71 | 994.2 |
| 20260509181530 | 53 | 255 | 0.0 | 3.0 | 0.00 | 0.00 | 0.00 | 71 | 994.3 |
| 20260509180030 | 53 | 239 | 2.0 | 4.0 | 0.00 | 0.00 | 0.00 | 71 | 994.2 |
| 20260509174528 | 54 | 235 | 2.0 | 5.0 | 0.00 | 0.00 | 0.00 | 68 | 994.0 |
| 20260509173027 | 54 | 254 | 3.0 | 6.0 | 0.00 | 0.00 | 0.00 | 67 | 994.1 |
| 20260509171535 | 55 | 252 | 3.0 | 6.0 | 0.00 | 0.00 | 0.00 | 68 | 994.2 |
| 20260509170030 | 55 | 245 | 2.0 | 5.0 | 0.00 | 0.01 | 0.00 | 67 | 994.1 |
| 20260509164525 | 54 | 256 | 2.0 | 7.0 | 0.00 | 0.01 | 0.00 | 68 | 994.1 |
| 20260509163025 | 53 | 254 | 3.0 | 5.0 | 0.00 | 0.01 | 0.00 | 69 | 994.3 |
| 20260509161523 | 54 | 271 | 2.0 | 5.0 | 0.00 | 0.01 | 0.00 | 67 | 994.3 |
| 20260509160023 | 54 | 269 | 3.0 | 7.0 | 0.00 | 0.02 | 0.00 | 68 | 994.2 |
| 20260509154520 | 54 | 250 | 4.0 | 7.0 | 0.00 | 0.02 | 0.00 | 68 | 994.3 |
| 20260509153017 | 54 | 228 | 4.0 | 9.0 | 0.00 | 0.02 | 0.00 | 67 | 994.0 |
| 20260509151516 | 54 | 271 | 5.0 | 9.0 | 0.00 | 0.02 | 0.00 | 67 | 994.1 |
| 20260509150019 | 53 | 247 | 4.0 | 6.0 | 0.00 | 0.02 | 0.00 | 68 | 994.4 |
| 20260509144518 | 53 | 241 | 3.0 | 5.0 | 0.00 | 0.02 | 0.00 | 68 | 994.6 |
| 20260509143009 | 54 | 262 | 2.0 | 6.0 | 0.00 | 0.02 | 0.00 | 66 | 994.9 |
| 20260509141510 | 54 | 267 | 4.0 | 11.0 | 0.00 | 0.02 | 0.00 | 66 | 994.9 |
| 20260509140008 | 54 | 264 | 4.0 | 7.0 | 0.00 | 0.02 | 0.00 | 66 | 994.9 |
| 20260509134510 | 55 | 269 | 4.0 | 9.0 | 0.00 | 0.02 | 0.00 | 65 | 995.0 |
| 20260509133004 | 55 | 271 | 4.0 | 9.0 | 0.00 | 0.02 | 0.00 | 64 | 995.0 |
| 20260509131502 | 56 | 244 | 5.0 | 12.0 | 0.00 | 0.02 | 0.00 | 63 | 994.8 |
| 20260509130059 | 56 | 259 | 5.0 | 16.0 | 0.00 | 0.02 | 0.00 | 63 | 994.7 |
| 20260509124558 | 55 | 257 | 5.0 | 12.0 | 0.00 | 0.02 | 0.00 | 64 | 994.8 |
| 20260509123055 | 56 | 226 | 7.0 | 13.0 | 0.00 | 0.02 | 0.00 | 62 | 994.6 |
| 20260509121553 | 55 | 278 | 6.0 | 12.0 | 0.00 | 0.02 | 0.00 | 65 | 994.6 |
| 20260509120049 | 55 | 229 | 6.0 | 11.0 | 0.00 | 0.03 | 0.02 | 66 | 994.4 |
| 20260509114548 | 55 | 241 | 4.0 | 7.0 | 0.00 | 0.03 | 0.02 | 65 | 994.6 |
| 20260509113051 | 54 | 245 | 3.0 | 8.0 | 0.00 | 0.03 | 0.02 | 66 | 994.8 |
| 20260509111546 | 53 | 260 | 7.0 | 12.0 | 0.00 | 0.03 | 0.02 | 68 | 994.6 |
| 20260509110044 | 53 | 264 | 2.0 | 4.0 | 0.00 | 0.04 | 0.02 | 70 | 995.2 |
| 20260509104544 | 53 | 268 | 1.0 | 5.0 | 0.00 | 0.04 | 0.02 | 69 | 995.1 |
| 20260509103042 | 54 | 238 | 2.0 | 7.0 | 0.00 | 0.04 | 0.02 | 68 | 995.1 |
| 20260509101550 | 54 | 260 | 1.0 | 5.0 | 0.00 | 0.04 | 0.02 | 68 | 995.1 |
| 20260509100041 | 55 | 269 | 2.0 | 6.0 | 0.00 | 0.04 | 0.02 | 66 | 995.1 |
| 20260509094540 | 55 | 244 | 2.0 | 9.0 | 0.00 | 0.04 | 0.02 | 64 | 995.0 |
| 20260509093036 | 55 | 229 | 5.0 | 11.0 | 0.00 | 0.04 | 0.02 | 64 | 994.9 |
| 20260509091533 | 55 | 251 | 5.0 | 10.0 | 0.00 | 0.04 | 0.02 | 65 | 995.1 |
| 20260509090031 | 53 | 249 | 4.0 | 7.0 | 0.00 | 0.04 | 0.02 | 69 | 995.3 |
| 20260509084530 | 53 | 241 | 1.0 | 7.0 | 0.00 | 0.04 | 0.02 | 70 | 995.3 |
| 20260509083028 | 53 | 248 | 0.0 | 3.0 | 0.00 | 0.04 | 0.02 | 70 | 995.2 |
| 20260509081531 | 53 | 257 | 0.0 | 2.0 | 0.00 | 0.04 | 0.02 | 70 | 995.1 |
| 20260509080024 | 54 | 246 | 1.0 | 3.0 | 0.00 | 0.25 | 0.02 | 69 | 995.1 |
| 20260509074523 | 55 | 245 | 0.0 | 4.0 | 0.00 | 0.25 | 0.02 | 69 | 995.1 |
| 20260509073019 | 55 | 248 | 2.0 | 7.0 | 0.00 | 0.25 | 0.02 | 69 | 995.1 |
| 20260509071518 | 56 | 249 | 3.0 | 6.0 | 0.00 | 0.25 | 0.02 | 69 | 995.0 |
| 20260509070016 | 56 | 260 | 2.0 | 7.0 | 0.00 | 0.55 | 0.02 | 69 | 995.1 |
| 20260509064515 | 56 | 259 | 1.0 | 6.0 | 0.00 | 0.55 | 0.02 | 70 | 995.0 |
| 20260509063013 | 57 | 255 | 2.0 | 7.0 | 0.00 | 0.55 | 0.02 | 69 | 994.8 |
| 20260509061511 | 57 | 252 | 3.0 | 11.0 | 0.00 | 0.55 | 0.02 | 69 | 994.8 |
| 20260509060010 | 58 | 252 | 5.0 | 14.0 | 0.00 | 0.75 | 0.02 | 69 | 994.5 |
| 20260509054508 | 58 | 246 | 4.0 | 12.0 | 0.00 | 0.75 | 0.02 | 69 | 994.5 |
| 20260509053006 | 58 | 235 | 4.0 | 11.0 | 0.00 | 0.75 | 0.02 | 69 | 994.4 |
| 20260509051504 | 59 | 264 | 5.0 | 8.0 | 0.00 | 0.75 | 0.02 | 67 | 994.3 |
| 20260509050004 | 60 | 272 | 3.0 | 6.0 | 0.00 | 1.00 | 0.02 | 65 | 994.5 |
| 20260509044504 | 62 | 218 | 3.0 | 7.0 | 0.00 | 1.00 | 0.02 | 63 | 994.4 |
| 20260509043106 | 63 | 262 | 4.0 | 10.0 | 0.00 | 1.00 | 0.02 | 61 | 994.4 |
| 20260509041600 | 63 | 222 | 4.0 | 9.0 | 0.00 | 1.00 | 0.02 | 61 | 994.5 |
| 20260509040059 | 64 | 244 | 4.0 | 9.0 | 0.00 | 1.05 | 0.02 | 59 | 994.6 |
| 20260509034558 | 65 | 275 | 2.0 | 9.0 | 0.00 | 1.05 | 0.02 | 60 | 994.5 |
| 20260509033059 | 64 | 259 | 2.0 | 7.0 | 0.00 | 1.05 | 0.02 | 61 | 994.5 |